Flag for Germany Weather past 2 weeks in Hamburg, Hamburg, Germany

Now
45 °F

Scattered clouds.


Feels Like: 35 °F
Forecast: 37 / 44 °F
Wind: 26 mph from Northwest

Location: Hamburg-Fuhlsbuettel

Current Time: Apr 1, 2015 at 5:04:31 PM

Latest Report: Apr 1, 2015 at 4:20 PM


Visibility: N/A

Pressure: 29.77 "Hg

Humidity: 39%

Dew point: 21 °F

Location of HamburgLocation

Historic Weather in Hamburg — Graph

°F

Hamburg temperature yesterday

Maximum temperature yesterday: 48 °F (at 10:50 AM)
Minimum temperature yesterday: 34 °F (at 4:50 AM)
Average temperature yesterday: 41 °F

Past Weeks' High & Low Weather Summary

 TemperatureHumidityPressure
High59 °F (Mar 17, 2:50 PM)100% (Mar 20, 6:20 AM)30.45 "Hg (Mar 20, 6:20 AM)
Low28 °F (Mar 20, 6:20 AM)27% (Mar 19, 2:50 PM)28.91 "Hg (Mar 29, 10:20 PM)
Average43 °F75%29.87 "Hg
* Reported Mar 17 2:20 PM — Apr 1 3:50 PM, Hamburg, Weather by CustomWeather, © 2015

Note: Actual official high and low records may vary slightly from our data, if they occured in-between our weather recording intervals... More about our weather records

Advertising

Hamburg weather history for previous 24 hours

 ConditionsComfort  
Time TempWeatherWind HumidityBarometerVisibility
3:50 PM
Wed, Apr 1
46 °FScattered clouds.26 mph46%29.77 "HgN/A
3:20 PM45 °FScattered clouds.30 mph46%29.77 "HgN/A
2:50 PM46 °FScattered showers. Scattered clouds.26 mph50%29.77 "HgN/A
2:20 PM45 °FScattered clouds.29 mph49%29.77 "HgN/A
1:50 PM45 °FScattered clouds.31 mph49%29.74 "HgN/A
1:20 PM45 °FScattered clouds.29 mph53%29.74 "HgN/A
12:50 PM45 °FScattered clouds.28 mph53%29.74 "HgN/A
12:20 PM45 °FPassing clouds.32 mph57%29.71 "HgN/A
11:50 AM43 °FScattered clouds.30 mph66%29.71 "HgN/A
11:20 AM39 °FPartly sunny.16 mph87%29.71 "HgN/A
10:50 AM36 °FSnow flurries. Broken clouds.25 mph93%29.71 "HgN/A
10:20 AM41 °FSprinkles. Broken clouds.22 mph81%29.65 "HgN/A
9:50 AM39 °FSprinkles. Broken clouds.21 mph87%29.68 "HgN/A
9:20 AM41 °FSprinkles. Broken clouds.21 mph81%29.65 "HgN/A
8:50 AM41 °FScattered clouds.14 mph87%29.62 "HgN/A
8:20 AM39 °FScattered clouds.13 mph87%29.62 "HgN/A
7:50 AM37 °FPassing clouds.10 mph93%29.62 "HgN/A
7:20 AM37 °FScattered showers. Passing clouds.14 mph93%29.62 "HgN/A
6:50 AM37 °FScattered showers. Passing clouds.9 mph93%29.59 "HgN/A
6:20 AM37 °FRain showers. Partly cloudy.12 mph93%29.59 "Hg5 mi
5:50 AM37 °FSprinkles. Partly cloudy.12 mph93%29.56 "HgN/A
5:20 AM37 °FSprinkles. Passing clouds.14 mph93%29.56 "HgN/A
4:50 AM37 °FSprinkles. Passing clouds.13 mph93%29.56 "HgN/A
4:20 AM37 °FPassing clouds.9 mph93%29.56 "HgN/A
3:50 AM37 °FSprinkles. Passing clouds.17 mph93%29.53 "HgN/A
3:20 AM37 °FSprinkles. Passing clouds.14 mph93%29.53 "HgN/A
2:50 AM37 °FPassing clouds.8 mph93%29.53 "HgN/A
2:20 AM37 °FSprinkles. Partly cloudy.9 mph93%29.50 "HgN/A
1:50 AM37 °FSprinkles. Passing clouds.21 mph87%29.50 "HgN/A
1:20 AM37 °FPassing clouds.13 mph93%29.50 "HgN/A
12:50 AM37 °FSprinkles. Passing clouds.13 mph93%29.47 "HgN/A
12:20 AM39 °FSprinkles. Passing clouds.20 mph87%29.47 "HgN/A
11:50 PM
Tue, Mar 31
39 °FSprinkles. Partly cloudy.17 mph87%29.47 "HgN/A
11:20 PM41 °FSprinkles. Passing clouds.21 mph81%29.45 "HgN/A
10:50 PM41 °FPassing clouds.20 mph81%29.45 "HgN/A
10:20 PM41 °FPassing clouds.21 mph81%29.45 "HgN/A
9:50 PM43 °FPassing clouds.21 mph71%29.42 "HgN/A
9:20 PM43 °FPassing clouds.22 mph76%29.42 "HgN/A
8:50 PM43 °FPartly sunny.25 mph76%29.39 "HgN/A
8:20 PM41 °FLight rain. Partly sunny.23 mph87%29.39 "HgN/A
7:50 PM41 °FLight rain. Partly sunny.29 mph87%29.36 "HgN/A
7:20 PM43 °FLight rain. Broken clouds.29 mph76%29.33 "HgN/A
6:50 PM41 °FLight rain. Partly sunny.35 mph87%29.30 "HgN/A
6:20 PM43 °FLight rain. Partly sunny.39 mph81%29.27 "HgN/A
5:50 PM41 °FRain. Partly sunny.35 mph93%29.24 "Hg4 mi
5:20 PM45 °FLight rain. Partly sunny.41 mph76%29.18 "HgN/A
Weather by CustomWeather, © 2015

See weather overviewHow to use our weather pages